CAPE
61 118 123 132 83 19 0 0 29 24 0 0 0 0 0 0 0 0 0 0 0 0 0 20 62 62 48 82 91 88 109 41 20 10 16 6 3 2
70 99 108 102 92 42 27 30 19 24 4 0 0 0 0 0 0 0 0 0 0 0 0 0 0 0 1 6 22 41 43 17 5 2 5 6 5 1
40 52 65 125 96 84 45 46 19 6 8 0 0 0 0 0 0 0 0 0 0 0 0 0 0 0 0 0 7 8 7 15 12 13 5 9 6 0
66 95 70 109 57 87 98 71 49 23 26 4 0 0 0 0 0 0 0 0 0 0 0 0 0 0 0 0 0 0 0 0 0 0 1 4 7 1
108 141 101 187 168 153 37 23 21 28 6 5 0 0 0 0 0 0 0 0 0 0 0 0 0 0 0 0 0 0 0 0 0 0 0 0 1 3
65 79 58 87 94 74 128 120 85 44 16 12 13 9 6 0 0 0 0 0 0 0 0 0 0 0 0 0 0 0 0 0 0 0 0 0 0 0
24 56 67 75 94 36 19 14 1 13 24 21 23 31 22 1 0 1 0 0 0 0 0 0 0 0 0 0 0 0 0 0 0 0 0 0 0 0
0 0 46 114 11 5 0 12 24 25 4 4 1 3 1 0 0 0 0 3 4 0 0 0 0 0 0 0 0 0 0 0 0 0 0 0 0 0
0 0 0 0 1 2 0 0 0 0 0 5 13 9 0 0 4 0 0 0 0 0 0 0 0 0 0 0 0 0 0 0 0 0 0 0 0 0
0 0 0 0 0 0 0 2 1 1 1 0 0 1 1 1 0 0 0 0 0 0 0 0 0 0 0 0 0 0 0 0 0 0 0 0 0 0
0 0 0 1 0 0 0 0 1 2 1 1 2 2 3 2 1 0 0 0 0 1 0 0 0 0 0 0 0 0 0 0 0 0 0 0 0 0
1 1 5 2 2 1 0 0 0 2 1 1 1 3 2 2 1 1 0 0 1 1 0 0 0 0 0 0 0 0 0 0 0 0 1 1 1 0
2 4 4 7 8 7 2 1 4 2 2 2 2 2 2 2 1 0 0 0 0 1 0 0 1 0 0 0 0 0 0 0 0 0 4 10 9 10
2 2 4 5 4 4 2 4 3 1 0 0 0 1 1 0 0 0 0 0 0 0 0 0 0 0 0 0 0 0 0 0 0 0 0 3 11 17
0 2 2 3 3 2 4 2 0 0 0 0 0 0 0 0 0 0 0 0 0 0 0 0 0 0 0 0 0 0 0 0 0 0 0 0 5 11
0 0 1 3 3 2 1 0 0 0 0 0 0 0 0 0 0 0 0 0 0 0 0 0 0 0 0 0 0 0 0 0 0 1 7 8 0 5
0 0 0 0 0 1 1 1 0 0 1 0 0 0 1 1 0 0 0 0 1 0 0 0 0 0 0 0 0 0 0 0 0 0 1 6 2 2
0 0 1 2 1 1 0 1 2 2 1 1 0 1 1 0 0 0 0 0 0 0 0 0 0 0 0 0 0 0 0 0 0 0 0 2 9 4
1 1 2 2 3 2 3 2 0 1 1 0 2 1 1 0 0 0 0 0 0 0 0 0 0 0 2 0 0 0 0 0 0 0 0 7 11 0
0 0 0 1 2 2 1 1 1 0 0 0 0 0 0 0 0 0 0 0 0 0 0 0 0 0 2 2 4 2 0 2 1 0 2 5 4 10
1 0 0 0 0 0 0 0 0 0 0 0 0 0 0 0 0 0 0 5 4 0 0 0 0 2 0 0 1 0 0 0 2 3 1 0 0 0
0 0 0 1 3 0 0 0 0 0 0 0 0 0 0 0 0 1 0 0 0 0 0 0 0 0 1 0 0 0 0 0 0 13 7 6 0 0
0 1 3 1 1 0 0 0 0 0 0 0 0 0 0 0 1 1 0 0 0 0 0 0 0 0 0 0 1 1 0 0 0 0 0 10 7 6
CIN
-26 -22 -13 -12 -24 -43 -0 -0 -31 -8 -0 -0 -0 -0 -0 -0 -0 -0 -0 -0 -0 -0 -0 -145 -77 -43 -52 -30 -36 -44 -41 -89 -120 -129 -152 -0 -0 -0
-31 -43 -20 -24 -21 -37 -51 -36 -30 -13 -1 -0 -0 -0 -0 -0 -0 -0 -0 -0 -0 -0 -0 -0 -0 -0 -85 -72 -121 -141 -139 -175 -197 -52 -0 -25 -0 -0
-63 -27 -20 -30 -21 -36 -51 -46 -23 -23 -6 -0 -0 -0 -0 -0 -0 -0 -0 -0 -0 -0 -0 -0 -0 -0 -0 -0 -226 -220 -210 -192 -227 -191 -146 -0 -0 -0
-78 -54 -36 -36 -51 -32 -17 -14 -14 -36 -14 -0 -0 -0 -0 -0 -0 -0 -0 -0 -0 -0 -0 -0 -0 -0 -0 -0 -0 -0 -13 -0 -14 -3 -0 -0 -0 -0
-63 -53 -39 -36 -12 -2 -13 -12 -22 -25 -6 -7 -0 -0 -0 -0 -0 -0 -0 -0 -0 -0 -0 -0 -0 -0 -0 -0 -0 -0 -0 -0 -0 -0 -0 -0 -0 -0
-92 -95 -84 -62 -33 -36 -8 -7 -7 -7 -2 -1 -2 -1 -10 -0 -0 -0 -0 -0 -0 -0 -0 -0 -0 -0 -0 -0 -0 -0 -0 -0 -0 -0 -0 -0 -0 -0
-140 -114 -95 -79 -62 -59 -42 -26 -2 -3 -2 -4 -4 -5 -3 -0 -0 -1 -0 -0 -0 -0 -0 -0 -0 -0 -0 -0 -0 -0 -0 -0 -0 -0 -0 -0 -0 -0
-0 -0 -99 -74 -102 -78 -0 -41 -37 -6 -0 -2 -8 -3 -2 -0 -0 -0 -0 -1 -0 -0 -0 -0 -0 -0 -0 -0 -0 -0 -0 -0 -0 -0 -0 -0 -0 -0
-0 -0 -0 -0 -0 -24 -0 -0 -0 -0 -16 -17 -4 -2 -2 -0 -18 -0 -0 -5 -0 -0 -0 -0 -0 -0 -0 -0 -0 -0 -0 -0 -0 -0 -0 -0 -0 -0
-0 -0 -0 -0 -0 -0 -0 -40 -0 -21 -0 -0 -2 -0 -0 -0 -0 -0 -0 -0 -0 -0 -0 -0 -0 -0 -0 -0 -0 -0 -0 -0 -0 -0 -0 -0 -0 -0
-0 -0 -0 -0 -0 -0 -0 -0 -0 -0 -0 -0 -0 -0 -0 -0 -0 -0 -0 -0 -0 -0 -0 -0 -0 -0 -0 -0 -0 -0 -0 -0 -0 -0 -0 -0 -0 -0
-0 -0 -0 -0 -0 -0 -0 -0 -0 -0 -0 -0 -0 -0 -0 -0 -0 -0 -0 -0 -0 -0 -0 -0 -0 -0 -0 -0 -0 -0 -0 -0 -0 -0 -0 -0 -0 -0
-0 -0 -0 -0 -0 -0 -0 -0 -0 -0 -0 -0 -0 -0 -0 -0 -0 -0 -0 -0 -0 -0 -0 -0 -0 -0 -0 -0 -0 -0 -0 -0 -0 -0 -0 -0 -0 -0
-0 -0 -0 -0 -0 -0 -0 -0 -0 -0 -0 -0 -0 -0 -0 -0 -0 -0 -0 -0 -0 -0 -0 -0 -0 -0 -0 -0 -0 -0 -0 -0 -0 -0 -0 -0 -0 -0
-0 -0 -0 -0 -0 -0 -0 -0 -0 -0 -0 -0 -0 -0 -0 -0 -0 -0 -0 -0 -0 -0 -0 -0 -0 -0 -0 -0 -0 -0 -1 -0 -0 -0 -0 -0 -1 -1
-0 -0 -0 -0 -0 -0 -0 -0 -0 -0 -0 -0 -0 -0 -0 -0 -0 -0 -0 -0 -0 -0 -0 -0 -0 -0 -0 -0 -0 -0 -0 -0 -0 -0 -1 -1 -0 -0
-0 -0 -0 -0 -0 -0 -0 -0 -0 -0 -0 -0 -1 -0 -0 -0 -3 -0 -0 -0 -0 -0 -0 -0 -0 -0 -0 -0 -0 -0 -1 -0 -0 -0 -0 -0 -1 -1
-0 -0 -0 -0 -0 -0 -0 -0 -0 -0 -0 -0 -0 -0 -0 -0 -0 -0 -0 -0 -0 -0 -0 -0 -0 -0 -0 -0 -0 -0 -0 -0 -6 -1 -0 -0 -0 -1
-0 -0 -0 -0 -0 -0 -0 -0 -0 -0 -0 -2 -0 -0 -0 -1 -0 -0 -0 -0 -0 -0 -0 -0 -0 -0 -0 -0 -0 -4 -0 -0 -1 -0 -1 -0 -0 -0
-0 -0 -0 -0 -0 -0 -0 -0 -0 -0 -0 -0 -0 -0 -2 -0 -0 -0 -0 -0 -0 -1 -0 -0 -0 -0 -0 -0 -0 -1 -0 -0 -0 -0 -0 -0 -1 -0
-0 -0 -0 -0 -0 -0 -0 -0 -0 -0 -0 -0 -0 -0 -0 -0 -0 -0 -0 -0 -0 -0 -0 -0 -0 -0 -0 -0 -0 -0 -0 -0 -0 -0 -0 -0 -0 -0
-0 -0 -0 -0 -0 -0 -0 -0 -0 -0 -0 -0 -0 -0 -0 -0 -0 -0 -0 -0 -0 -0 -0 -0 -0 -0 -0 -0 -0 -0 -0 -0 -0 -0 -0 -0 -0 -0
-0 -0 -0 -0 -0 -0 -0 -0 -0 -0 -0 -0 -0 -0 -0 -0 -0 -0 -0 -0 -0 -0 -0 -0 -0 -0 -0 -0 -0 -0 -0 -0 -0 -0 -0 -0 -0 -0
Wind_Speed
12 12 11 9 7 7 5 6 9 9 10 5 6 7 8 7 9 8 10 14 18 20 19 19 17 16 15 16 16 15 14 13 13 12 15 16 18 18
9 9 11 8 9 7 7 7 7 9 10 5 6 5 6 4 9 9 10 13 15 18 20 19 19 18 17 16 17 18 17 17 16 17 22 21 20 19
7 10 12 8 8 7 7 7 8 8 10 5 5 5 5 7 6 6 7 8 9 17 18 17 17 16 17 18 18 19 20 21 21 21 22 22 22 19
8 7 10 7 8 7 7 10 9 9 9 14 6 5 7 7 5 5 7 6 8 11 18 18 17 19 20 20 20 20 18 19 21 21 21 20 22 20
9 10 11 9 10 9 9 8 8 7 8 8 8 4 6 3 6 4 6 8 7 11 15 17 18 19 18 19 18 16 17 18 19 19 21 21 20 21
9 10 9 10 12 11 10 10 9 9 8 9 8 8 7 4 7 7 7 6 9 6 9 11 10 14 17 19 21 20 19 20 22 21 21 21 21 22
7 9 9 10 13 11 8 9 10 8 7 8 8 7 7 3 8 6 9 7 7 7 6 8 8 9 11 16 18 20 23 22 23 23 23 23 24 26
6 6 6 11 13 16 18 16 13 12 11 9 8 9 11 9 5 7 7 7 11 4 8 11 7 10 10 10 16 20 22 26 27 26 26 27 26 27
5 6 4 3 6 6 10 14 15 15 17 13 12 11 11 11 9 10 10 10 11 4 5 8 6 10 10 9 15 17 22 25 26 26 26 27 28 29
2 3 3 3 1 3 4 5 7 1 7 6 7 4 6 6 2 3 1 5 8 5 3 7 3 6 6 6 12 16 19 21 22 22 23 25 26 27
7 8 7 6 7 5 5 5 7 7 10 17 16 16 18 18 14 2 4 3 1 2 4 1 3 3 2 4 5 12 15 17 20 22 23 24 25 27
9 11 18 12 15 14 9 7 10 7 6 5 6 10 12 13 16 9 4 3 1 2 4 3 2 3 4 2 2 3 3 9 14 18 21 24 25 13
8 8 8 19 19 19 18 11 9 5 8 6 6 5 6 7 6 6 5 4 2 2 4 3 2 2 1 4 4 4 4 5 6 8 14 19 24 22
8 6 9 20 21 18 13 18 15 9 5 4 4 5 4 4 4 4 5 4 2 3 5 2 3 2 4 7 6 2 4 6 6 8 9 15 22 24
7 12 17 17 17 14 18 17 13 6 5 5 4 3 2 3 4 3 3 3 4 4 3 2 3 4 3 7 10 10 10 4 7 9 9 10 12 11
10 10 13 14 15 12 9 9 6 5 4 2 2 1 1 3 1 1 1 2 2 3 5 5 5 4 4 6 7 9 8 9 8 10 9 11 12 13
7 5 6 6 6 6 6 6 5 5 5 3 3 4 4 4 2 2 2 2 1 4 4 4 5 6 7 10 10 9 10 11 10 11 11 11 12 14
6 6 6 5 5 5 5 5 4 6 4 5 4 3 3 3 4 3 2 2 3 3 3 4 4 4 4 8 18 8 8 9 9 11 12 13 15 14
5 5 5 5 5 5 5 4 5 4 3 4 4 4 4 4 7 5 2 3 3 3 3 3 2 4 9 11 4 12 8 8 11 13 11 12 15 17
5 4 4 4 4 4 4 4 4 4 3 3 4 4 4 5 6 6 5 5 6 7 7 3 2 5 7 10 13 11 11 11 9 12 12 13 15 25
3 4 3 3 4 3 2 2 3 4 3 3 3 4 4 4 5 5 6 12 13 7 8 8 6 17 8 8 8 10 5 13 13 11 12 9 7 5
2 3 3 2 3 2 4 3 3 4 4 4 4 4 5 5 5 6 6 8 8 7 8 8 8 7 7 6 10 14 8 5 7 9 7 5 4 6
2 1 1 1 2 2 3 3 3 4 4 4 4 5 6 6 6 6 7 7 8 8 8 8 6 5 5 4 11 9 5 4 3 4 4 8 8 11
Wind_Direction
232 227 228 229 205 208 208 210 208 228 236 214 226 214 225 226 223 215 214 221 219 226 228 227 223 224 225 225 224 219 214 209 219 227 235 238 238 244
226 219 230 228 223 212 204 211 219 230 247 186 216 216 216 221 233 222 228 227 210 218 227 224 222 219 223 224 220 216 209 208 211 225 241 241 240 244
212 225 234 221 229 211 205 207 215 216 241 242 217 229 234 224 230 218 225 221 227 221 224 224 225 224 226 227 226 217 215 216 213 219 233 245 245 243
210 210 223 217 221 210 206 211 214 212 224 246 237 223 228 234 231 208 222 227 232 218 214 216 221 229 232 231 232 228 216 216 211 217 224 235 247 243
208 212 219 204 219 223 218 219 222 226 227 232 246 230 231 198 243 239 228 232 228 232 220 225 227 231 236 236 234 231 221 217 218 219 221 225 237 239
211 211 207 203 211 210 219 220 225 226 229 235 236 247 233 217 223 240 240 230 242 227 227 235 240 241 239 236 230 221 212 212 222 223 223 227 226 231
211 211 208 205 200 199 203 217 239 238 236 241 240 237 235 206 231 220 238 242 233 226 245 245 240 241 240 233 240 222 217 219 222 223 226 230 228 229
223 220 215 211 214 209 209 209 211 224 232 228 234 238 243 234 211 224 240 246 262 186 215 248 223 242 243 242 241 232 219 221 225 226 223 226 231 232
249 234 207 181 221 218 224 232 234 231 228 234 235 234 239 235 228 226 235 240 251 232 226 255 216 236 239 242 236 230 231 232 229 224 229 233 229 230
218 230 184 154 353 242 239 234 231 244 15 266 250 66 46 11 287 182 217 278 256 251 210 258 203 235 242 230 231 229 234 237 241 240 240 241 238 234
73 59 62 60 38 251 186 127 93 78 54 56 67 67 63 44 27 21 33 85 312 337 13 23 347 305 292 255 233 238 243 245 248 250 252 247 242 239
81 75 68 66 64 67 85 97 87 63 62 66 61 52 48 38 38 38 18 72 352 346 356 348 335 358 313 285 322 310 284 265 267 265 261 258 253 246
74 67 61 63 59 64 73 68 75 72 68 58 57 47 44 32 23 28 30 43 15 294 15 25 325 327 245 317 335 347 336 316 306 295 286 273 261 253
66 63 69 69 66 60 65 74 74 65 65 64 60 41 33 23 3 4 4 356 347 264 302 353 283 313 302 294 283 321 313 295 277 279 285 284 280 265
72 82 78 72 68 61 66 67 62 55 62 64 53 27 341 313 326 317 308 282 263 258 270 247 239 276 262 278 290 302 316 311 287 272 274 271 277 277
81 81 79 74 72 70 60 55 47 53 58 58 42 320 306 5 331 272 318 304 313 296 276 257 238 216 264 260 271 281 279 282 290 284 281 283 276 270
77 70 69 67 67 58 55 45 40 39 29 10 16 13 9 4 333 338 268 300 332 315 297 293 277 246 244 254 267 268 282 286 288 291 289 281 274 272
81 82 77 69 67 60 49 44 33 25 1 2 8 346 333 335 334 335 302 241 273 288 259 272 285 300 271 244 229 261 263 275 282 285 284 288 282 272
80 82 81 73 66 58 47 31 23 5 343 347 339 340 332 311 329 333 286 236 254 265 258 253 262 290 312 308 267 215 288 295 291 291 286 280 278 281
67 68 72 73 64 46 35 16 353 327 317 293 283 283 318 329 335 332 330 326 331 326 319 294 280 294 294 298 300 303 250 279 280 286 285 282 275 272
81 78 65 49 44 36 347 309 307 292 301 293 279 282 289 305 319 327 323 335 329 317 312 306 295 302 295 288 279 284 287 253 256 271 286 279 285 285
81 76 57 32 48 358 327 319 311 298 284 273 275 277 299 315 322 328 324 321 314 303 294 289 300 292 275 271 288 295 292 278 261 276 296 310 313 301
100 57 53 20 7 308 292 302 293 290 282 277 284 307 319 321 321 316 311 312 304 303 299 298 294 283 267 271 288 294 276 275 297 309 302 334 341 323